This is the latest recevied weather packets stored in our database for station/object IU0KRR-10. If no packets are shown the sender has not sent any weather packets the latest 10 day(s).
| Time | Temp. | Humidity | Pressure | Rain* | Wind** | Luminosity | Snow |
|---|---|---|---|---|---|---|---|
| 1778112883 | 21.67° C | 40% | 870 hPa | - | - | - | - |
| 1778111983 | 21.11° C | 41% | 870.2 hPa | - | - | - | - |
| 1778111083 | 21.11° C | 41% | 870.1 hPa | - | - | - | - |
| 1778110183 | 21.11° C | 41% | 870.3 hPa | - | - | - | - |
| 1778109282 | 21.67° C | 41% | 870.4 hPa | - | - | - | - |
| 1778108382 | 21.67° C | 40% | 870.5 hPa | - | - | - | - |
| 1778107482 | 21.11° C | 41% | 870.6 hPa | - | - | - | - |
| 1778106624 | 21.67° C | 41% | 870.5 hPa | - | - | - | - |
| 1778106582 | 21.67° C | 41% | 870.5 hPa | - | - | - | - |
| 1778105682 | 21.11° C | 41% | 870.5 hPa | - | - | - | - |
| 1778104781 | 21.11° C | 41% | 870.6 hPa | - | - | - | - |
| 1778103881 | 21.11° C | 41% | 870.6 hPa | - | - | - | - |
| 1778102981 | 21.11° C | 41% | 870.6 hPa | - | - | - | - |
| 1778102081 | 21.11° C | 41% | 870.5 hPa | - | - | - | - |
| 1778101181 | 20.56° C | 41% | 870.4 hPa | - | - | - | - |
| 1778100281 | 21.11° C | 40% | 870.5 hPa | - | - | - | - |
| 1778099381 | 21.11° C | 41% | 870.3 hPa | - | - | - | - |
| 1778098480 | 21.11° C | 40% | 870.6 hPa | - | - | - | - |
| 1778097581 | 21.11° C | 41% | 870.4 hPa | - | - | - | - |
| 1778096680 | 21.11° C | 42% | 870.4 hPa | - | - | - | - |
| 1778095780 | 21.11° C | 42% | 870.2 hPa | - | - | - | - |
| 1778094880 | 21.67° C | 40% | 870 hPa | - | - | - | - |
| 1778093980 | 21.67° C | 40% | 869.9 hPa | - | - | - | - |
| 1778093080 | 22.22° C | 40% | 870 hPa | - | - | - | - |
| 1778092180 | 22.22° C | 38% | 869.8 hPa | - | - | - | - |
* Rain since midnight (hover to see other rain measurements)
** Current wind speed in m/s (hover to see current wind gust speed)